Flag Weather past 2 weeks in Vaasa, Finland

Now
30 °F

Light snow. Mostly cloudy.


Feels Like: 25 °F
Forecast: 30 / 34 °F
Wind: 5 mph from Southeast

Location: Vaasa Airport

Current Time: Nov 21, 2014 at 9:33:52 PM

Latest Report: Nov 21, 2014 at 9:20 PM


Visibility: N/A

Pressure: 30.30 "Hg

Humidity: 100%

Dew point: 30 °F

Location of VaasaLocation

Historic Weather in Vaasa — Graph

°F

Vaasa temperature yesterday

Maximum temperature yesterday: 30 °F (at 12:20 AM)
Minimum temperature yesterday: 28 °F (at 1:20 AM)
Average temperature yesterday: 29 °F

Past Weeks' High & Low Weather Summary

 TemperatureHumidityPressure
High46 °F (Nov 10, 6:50 AM)100% (Nov 7, 4:20 AM)30.60 "Hg (Nov 7, 4:20 AM)
Low25 °F (Nov 6, 8:20 PM)75% (Nov 13, 1:50 PM)29.65 "Hg (Nov 11, 7:20 AM)
Average33 °F94%30.24 "Hg
* Reported Nov 6 8:20 PM — Nov 21 8:20 PM, Vaasa, Weather by CustomWeather, © 2014

Note: Actual official high and low records may vary slightly from our data, if they occured in-between our weather recording intervals... More about our weather records

Advertising

Vaasa weather history for previous 24 hours

 ConditionsComfort  
Time TempWeatherWind HumidityBarometerVisibility
8:20 PM
Nov 21
30 °FLight snow. Mostly cloudy.5 mph100%30.30 "Hg3 mi
7:50 PM30 °FLight snow. Mostly cloudy.3 mph100%30.30 "Hg5 mi
7:20 PM30 °FLight snow. Mostly cloudy.3 mph100%30.30 "HgN/A
6:50 PM30 °FLight snow. Low clouds.5 mph100%30.30 "HgN/A
6:20 PM30 °FMostly cloudy.2 mph100%30.30 "HgN/A
5:20 PM30 °FLight snow. Low clouds.7 mph100%30.33 "HgN/A
4:50 PM30 °FMostly cloudy.7 mph100%30.33 "Hg6 mi
4:20 PM30 °FLight rain. Mostly cloudy.5 mph100%30.33 "Hg5 mi
3:50 PM30 °FMostly cloudy.2 mph100%30.36 "Hg4 mi
3:20 PM30 °FCloudy.3 mph100%30.36 "Hg4 mi
2:50 PM30 °FIce fog.5 mph100%30.36 "Hg4 mi
2:20 PM30 °FLight snow. Mostly cloudy.3 mph100%30.36 "Hg4 mi
1:20 PM32 °FLight rain. Ice fog.2 mph93%30.39 "Hg2 mi
12:50 PM32 °FLight snow. Low clouds.2 mph93%30.39 "Hg4 mi
12:20 PM32 °FOvercast.2 mph93%30.39 "Hg6 mi
11:50 AM32 °FOvercast.3 mph93%30.39 "HgN/A
11:20 AM30 °FOvercast.7 mph100%30.39 "HgN/A
10:50 AM30 °FOvercast.9 mph100%30.39 "HgN/A
10:20 AM32 °FOvercast.8 mph93%30.42 "HgN/A
9:50 AM30 °FOvercast.7 mph100%30.42 "HgN/A
9:20 AM30 °FOvercast.6 mph100%30.42 "Hg5 mi
8:50 AM32 °FOvercast.3 mph93%30.42 "Hg6 mi
8:20 AM32 °FOvercast.2 mph87%30.42 "HgN/A
7:50 AM32 °FOvercast.2 mph87%30.42 "HgN/A
7:20 AM32 °FOvercast.2 mph87%30.42 "HgN/A
6:50 AM32 °FOvercast.3 mph87%30.42 "HgN/A
6:20 AM30 °FOvercast.6 mph93%30.42 "HgN/A
5:20 AM30 °FMostly cloudy.8 mph93%30.45 "HgN/A
4:50 AM30 °FMostly cloudy.7 mph93%30.45 "HgN/A
4:20 AM30 °FOvercast.6 mph93%30.45 "HgN/A
3:50 AM30 °FOvercast.7 mph93%30.45 "HgN/A
3:20 AM30 °FOvercast.8 mph93%30.48 "HgN/A
2:50 AM30 °FOvercast.8 mph93%30.48 "HgN/A
2:20 AM30 °FOvercast.7 mph93%30.48 "HgN/A
1:50 AM30 °FOvercast.7 mph93%30.48 "HgN/A
1:20 AM30 °FOvercast.8 mph93%30.48 "HgN/A
12:50 AM30 °FOvercast.7 mph93%30.51 "HgN/A
12:20 AM30 °FOvercast.7 mph93%30.51 "HgN/A
11:50 PM
Nov 20
30 °FOvercast.6 mph93%30.51 "HgN/A
11:20 PM30 °FOvercast.7 mph93%30.51 "HgN/A
10:50 PM30 °FOvercast.7 mph93%30.51 "HgN/A
10:20 PM30 °FLow clouds.7 mph93%30.51 "HgN/A
9:50 PM30 °FLow clouds.6 mph100%30.51 "HgN/A
9:20 PM30 °FLow clouds.6 mph100%30.51 "Hg4 mi
Weather by CustomWeather, © 2014

See weather overviewHow to use our weather pages